Jefferson City, MO

9:07 AM CST on December 18, 2017 (GMT -0600)
Jefferson City Memorial

Weather History for KJEF - February, 2013

Change the Weather History Date:

Thursday, February 28, 2013

  Actual Average Record
Temperature  
Mean Temperature 32 °F -  
Max Temperature 34 °F 51 °F 78 °F (2017)
Min Temperature 30 °F 28 °F -9 °F (1934)
Degree Days  
Heating Degree Days 33    
Moisture  
Dew Point 25 °F    
Average Humidity 73    
Maximum Humidity 80    
Minimum Humidity 70    
Precipitation  
Precipitation 0.00 in - - ()
Sea Level Pressure  
Sea Level Pressure 30.09 in    
Wind  
Wind Speed 9 mph (WNW)    
Max Wind Speed 14 mph    
Max Gust Speed 21 mph    
Visibility 8 miles    
Events Snow    
Averages and records for this station are not official NWS values.
T = Trace of Precipitation, MM = Missing Value Source: NWS Daily Summary

Daily Weather History Graph

Daily Weather History Graph

Search for Another Location

Airport or City:

Trip Planner

Search our weather history database for the weather conditions in past years. The results will help you decide how hot, cold, wet, or windy it might be!

Date:

Astronomy

Feb. 28, 2013 Rise Set
Actual Time 6:41 AM CST 6:00 PM CST
Civil Twilight 6:15 AM CST 6:27 PM CST
Nautical Twilight 5:44 AM CST 6:58 PM CST
Astronomical Twilight 5:13 AM CST 7:29 PM CST
Moon 9:25 PM CST (2/28) 7:54 AM CST (2/28)
Length of Visible Light 12h 12m
Length of Day
11h 19m
Waning Gibbous, 90% of the Moon is Illuminated
Feb 28
Waning Gibbous
Mar 4
Last Quarter
Mar 11
New
Mar 19
First Quarter
Mar 27
Full

Hourly Weather History & Observations

Time (CST) Temp. Windchill Dew Point Humidity Pressure Visibility Wind Dir Wind Speed Gust Speed Precip Events Conditions
12:32 AM 30.2 °F 22.6 °F 24.8 °F 80% 29.97 in 10.0 mi WNW 8.1 mph - N/A   Overcast
1:53 AM 30.9 °F 27.5 °F 25.0 °F 79% 29.96 in 10.0 mi NW 3.5 mph - N/A   Overcast
2:01 AM 30.2 °F 25.4 °F 24.8 °F 80% 29.97 in 10.0 mi WNW 4.6 mph - N/A   Overcast
2:53 AM 32.0 °F 23.6 °F 24.1 °F 73% 29.96 in 10.0 mi WNW 10.4 mph - N/A   Overcast
3:53 AM 33.1 °F 25.5 °F 25.0 °F 72% 29.96 in 10.0 mi WNW 9.2 mph - N/A   Overcast
4:53 AM 33.1 °F 24.9 °F 25.0 °F 72% 29.99 in 10.0 mi WNW 10.4 mph - N/A   Overcast
5:23 AM 32.0 °F 22.5 °F 24.8 °F 75% 30.01 in 10.0 mi WNW 12.7 mph - N/A   Overcast
5:53 AM 30.9 °F 21.2 °F 24.1 °F 76% 30.01 in 10.0 mi WNW 12.7 mph - N/A   Overcast
6:53 AM 30.9 °F 21.7 °F 24.1 °F 76% 30.04 in 10.0 mi WNW 11.5 mph - N/A   Overcast
8:53 AM 30.0 °F 19.5 °F 23.0 °F 75% 30.08 in 9.0 mi WNW 13.8 mph - N/A   Overcast
9:53 AM 30.9 °F 21.2 °F 23.0 °F 72% 30.09 in 9.0 mi WNW 12.7 mph - N/A   Overcast
10:53 AM 30.9 °F 21.2 °F 24.1 °F 76% 30.11 in 10.0 mi WNW 12.7 mph - N/A   Overcast
11:53 AM 32.0 °F 22.5 °F 24.1 °F 73% 30.11 in 10.0 mi WNW 12.7 mph - N/A   Overcast
12:53 PM 33.1 °F 23.9 °F 24.1 °F 70% 30.10 in 10.0 mi WNW 12.7 mph - N/A   Overcast
1:53 PM 33.1 °F 23.9 °F 25.0 °F 72% 30.10 in 10.0 mi WNW 12.7 mph - N/A   Overcast
2:53 PM 34.0 °F 25.5 °F 25.0 °F 70% 30.10 in 5.0 mi WNW 11.5 mph 20.7 mph 0.00 in Snow Light Snow
3:53 PM 34.0 °F 25.5 °F 25.0 °F 70% 30.12 in 6.0 mi NW 11.5 mph - 0.00 in Snow Light Snow
4:07 PM 33.8 °F 24.8 °F 24.8 °F 70% 30.13 in 2.0 mi WNW 12.7 mph - 0.00 in Snow Light Snow
4:27 PM 33.8 °F 24.8 °F 26.6 °F 75% 30.13 in 1.8 mi WNW 12.7 mph - 0.00 in Snow Light Snow
4:36 PM 33.8 °F 25.3 °F 26.6 °F 75% 30.13 in 2.0 mi WNW 11.5 mph - 0.00 in Snow Light Snow
4:53 PM 33.1 °F 26.1 °F 26.1 °F 75% 30.12 in 3.0 mi WNW 8.1 mph - 0.00 in Snow Light Snow
5:41 PM 33.8 °F 26.4 °F 26.6 °F 75% 30.13 in 5.0 mi WNW 9.2 mph - 0.00 in Snow Light Snow
5:53 PM 34.0 °F 28.0 °F 26.1 °F 73% 30.12 in 6.0 mi WNW 6.9 mph - 0.00 in Snow Light Snow
6:53 PM 33.1 °F 26.1 °F 25.0 °F 72% 30.14 in 10.0 mi WNW 8.1 mph - 0.00 in   Overcast
7:10 PM 33.8 °F 27.0 °F 24.8 °F 70% 30.15 in 10.0 mi WNW 8.1 mph - N/A   Overcast
7:20 PM 33.8 °F 27.0 °F 24.8 °F 70% 30.15 in 9.0 mi WNW 8.1 mph - 0.00 in Snow Light Snow
7:35 PM 33.8 °F 26.4 °F 26.6 °F 75% 30.15 in 7.0 mi WNW 9.2 mph - 0.00 in Snow Light Snow
7:53 PM 33.1 °F 26.1 °F 26.1 °F 75% 30.14 in 6.0 mi WNW 8.1 mph - 0.00 in Snow Light Snow
8:11 PM 33.8 °F 27.0 °F 24.8 °F 70% 30.14 in 8.0 mi WNW 8.1 mph - 0.00 in   Overcast
8:53 PM 33.1 °F 27.7 °F 25.0 °F 72% 30.14 in 10.0 mi WNW 5.8 mph - 0.00 in   Overcast
9:39 PM 32.0 °F 27.5 °F 24.8 °F 75% 30.16 in 10.0 mi WNW 4.6 mph - N/A   Overcast
9:53 PM 33.1 °F 27.7 °F 25.0 °F 72% 30.15 in 10.0 mi WNW 5.8 mph - N/A   Overcast
10:46 PM 33.8 °F 28.6 °F 24.8 °F 70% 30.15 in 10.0 mi WNW 5.8 mph - N/A   Overcast
10:53 PM 33.1 °F 26.9 °F 25.0 °F 72% 30.14 in 10.0 mi WNW 6.9 mph - N/A   Overcast
11:14 PM 33.8 °F 27.7 °F 24.8 °F 70% 30.15 in 10.0 mi WNW 6.9 mph - N/A   Overcast
11:43 PM 32.0 °F 24.8 °F 24.8 °F 75% 30.14 in 10.0 mi WNW 8.1 mph - N/A   Overcast
11:50 PM 32.0 °F 24.2 °F 24.8 °F 75% 30.14 in 10.0 mi WNW 9.2 mph - N/A   Overcast